| time (UTC) | temp F | wind direction | speed MPH | gust MPH | rain 1hr in | rain 24hr in | rain mn in | humidity % | barometer mb |
| 20260504184543 | 55 | 340 | 3.0 | 12.0 | 0.00 | 0.02 | 0.00 | 30 | 1008.7 |
| 20260504183042 | 54 | 331 | 4.0 | 10.0 | 0.00 | 0.02 | 0.00 | 31 | 1008.8 |
| 20260504181545 | 54 | 5 | 4.0 | 15.0 | 0.00 | 0.02 | 0.00 | 31 | 1008.9 |
| 20260504180043 | 54 | 355 | 3.0 | 8.0 | 0.00 | 0.02 | 0.00 | 33 | 1008.9 |
| 20260504174541 | 53 | 346 | 3.0 | 11.0 | 0.00 | 0.02 | 0.00 | 35 | 1008.9 |
| 20260504173039 | 54 | 324 | 2.0 | 10.0 | 0.00 | 0.02 | 0.00 | 33 | 1008.9 |
| 20260504171545 | 53 | 343 | 4.0 | 13.0 | 0.00 | 0.02 | 0.00 | 33 | 1008.9 |
| 20260504081525 | 55 | 32 | 0.0 | 3.0 | 0.00 | 0.02 | 0.00 | 33 | 1003.0 |
| 20260504050003 | 57 | 348 | 1.0 | 4.0 | 0.00 | 0.02 | 0.02 | 34 | 1004.7 |
| 20260504044511 | 58 | 360 | 1.0 | 5.0 | 0.00 | 0.02 | 0.02 | 34 | 1004.5 |
| 20260504043007 | 57 | 305 | 1.0 | 5.0 | 0.00 | 0.02 | 0.02 | 35 | 1004.6 |
| 20260504041502 | 56 | 335 | 1.0 | 5.0 | 0.00 | 0.02 | 0.02 | 37 | 1004.4 |
| 20260504040002 | 54 | 296 | 1.0 | 6.0 | 0.00 | 0.02 | 0.02 | 42 | 1004.7 |
| 20260504034501 | 53 | 17 | 0.0 | 1.0 | 0.00 | 0.02 | 0.02 | 49 | 1004.8 |
| 20260504033001 | 52 | 184 | 0.0 | 1.0 | 0.00 | 0.02 | 0.02 | 52 | 1004.8 |
| 20260504031501 | 53 | 153 | 0.0 | 0.0 | 0.00 | 0.02 | 0.02 | 52 | 1004.6 |
| 20260504030122 | 53 | 153 | 0.0 | 0.0 | 0.00 | 0.02 | 0.02 | 52 | 1004.4 |
| 20260504024602 | 53 | 149 | 0.0 | 1.0 | 0.00 | 0.02 | 0.02 | 52 | 1004.5 |
| 20260504023102 | 55 | 155 | 0.0 | 0.0 | 0.00 | 0.02 | 0.02 | 49 | 1004.3 |
| 20260504021559 | 56 | 155 | 0.0 | 0.0 | 0.00 | 0.02 | 0.02 | 47 | 1004.4 |
| 20260504020107 | 57 | 149 | 0.0 | 2.0 | 0.00 | 0.02 | 0.02 | 45 | 1004.4 |
| 20260504014604 | 59 | 151 | 0.0 | 1.0 | 0.00 | 0.02 | 0.02 | 43 | 1004.6 |
| 20260504013056 | 60 | 160 | 0.0 | 2.0 | 0.00 | 0.02 | 0.02 | 40 | 1004.8 |
| 20260504011553 | 61 | 146 | 0.0 | 2.0 | 0.00 | 0.02 | 0.02 | 39 | 1005.0 |
| 20260504010052 | 62 | 151 | 0.0 | 1.0 | 0.00 | 0.02 | 0.02 | 37 | 1005.3 |
| 20260504004551 | 62 | 14 | 0.0 | 3.0 | 0.00 | 0.02 | 0.02 | 37 | 1005.5 |
| 20260504003048 | 63 | 190 | 0.0 | 2.0 | 0.00 | 0.02 | 0.02 | 34 | 1005.6 |
| 20260504001600 | 64 | 179 | 0.0 | 5.0 | 0.00 | 0.02 | 0.02 | 34 | 1005.8 |
| 20260504000047 | 63 | 328 | 1.0 | 4.0 | 0.00 | 0.02 | 0.02 | 35 | 1006.2 |
| 20260503234543 | 63 | 167 | 1.0 | 5.0 | 0.00 | 0.02 | 0.02 | 36 | 1006.4 |
| 20260503233041 | 63 | 126 | 1.0 | 5.0 | 0.00 | 0.02 | 0.02 | 37 | 1006.6 |
| 20260503231540 | 63 | 298 | 0.0 | 3.0 | 0.00 | 0.02 | 0.02 | 40 | 1006.7 |
| 20260503230042 | 61 | 174 | 1.0 | 5.0 | 0.00 | 0.02 | 0.02 | 47 | 1006.9 |
| 20260503224535 | 60 | 150 | 0.0 | 2.0 | 0.00 | 0.02 | 0.02 | 49 | 1007.4 |
| 20260503223032 | 60 | 332 | 0.0 | 1.0 | 0.00 | 0.02 | 0.02 | 43 | 1008.1 |
| 20260503221531 | 60 | 99 | 0.0 | 3.0 | 0.00 | 0.02 | 0.02 | 45 | 1008.2 |
| 20260503220030 | 59 | 304 | 0.0 | 3.0 | 0.00 | 0.02 | 0.02 | 50 | 1008.4 |
| 20260503214531 | 56 | 103 | 0.0 | 0.0 | 0.01 | 0.02 | 0.02 | 61 | 1008.5 |
| 20260503213034 | 55 | 9 | 0.0 | 3.0 | 0.01 | 0.02 | 0.02 | 60 | 1008.8 |
| 20260503211533 | 56 | 9 | 0.0 | 2.0 | 0.01 | 0.02 | 0.02 | 58 | 1009.0 |
| 20260503210025 | 59 | 28 | 0.0 | 3.0 | 0.01 | 0.02 | 0.02 | 53 | 1009.0 |
| 20260503204525 | 61 | 254 | 0.0 | 0.0 | 0.00 | 0.01 | 0.01 | 40 | 1009.1 |
| 20260503203024 | 61 | 163 | 0.0 | 0.0 | 0.00 | 0.01 | 0.01 | 43 | 1008.6 |
| 20260503201524 | 60 | 326 | 0.0 | 0.0 | 0.01 | 0.01 | 0.01 | 49 | 1008.6 |
| 20260503200022 | 61 | 96 | 0.0 | 0.0 | 0.01 | 0.01 | 0.01 | 46 | 1009.0 |
| 20260503194520 | 61 | 111 | 0.0 | 1.0 | 0.01 | 0.01 | 0.01 | 47 | 1009.5 |
| 20260503193019 | 63 | 17 | 0.0 | 2.0 | 0.01 | 0.01 | 0.01 | 46 | 1009.4 |
| 20260503191518 | 64 | 249 | 0.0 | 0.0 | 0.00 | 0.00 | 0.00 | 32 | 1009.5 |
| 20260503190039 | 65 | 240 | 0.0 | 6.0 | 0.00 | 0.00 | 0.00 | 31 | 1009.5 |